Weather History for KADM - November, 2012

Change the Weather History Date:

Wednesday, November 7, 2012

  Actual Average Record
Temperature  
Mean Temperature 56 °F -  
Max Temperature 73 °F 62 °F 86 °F (2005)
Min Temperature 39 °F 45 °F 32 °F (2013)
Degree Days  
Heating Degree Days 9    
Growing Degree Days 6 (Base 50)    
Moisture  
Dew Point 37 °F    
Average Humidity 74    
Maximum Humidity 93    
Minimum Humidity 23    
Precipitation  
Precipitation 0.00 in - - ()
Sea Level Pressure  
Sea Level Pressure 30.12 in    
Wind  
Wind Speed 1 mph (WSW)    
Max Wind Speed 6 mph    
Max Gust Speed -    
Visibility 10 miles    
Events      
Averages and records for this station are not official NWS values.
T = Trace of Precipitation, MM = Missing Value Source: NWS Daily Summary

Daily Weather History Graph

Daily Weather History Graph

Search for Another Location

Airport or City:

Trip Planner

Search our weather history database for the weather conditions in past years. The results will help you decide how hot, cold, wet, or windy it might be!

Date:

Astronomy

Nov. 07, 2012 Rise Set
Actual Time 6:54 AM CST 5:29 PM CST
Civil Twilight 6:27 AM CST 5:55 PM CST
Nautical Twilight 5:57 AM CST 6:25 PM CST
Astronomical Twilight 5:28 AM CST 6:54 PM CST
Moon 12:06 AM CST (11/7) 1:22 PM CST (11/7)
Length of Visible Light 11h 27m
Length of Day
10h 35m
Last Quarter, 43% of the Moon is Illuminated
Nov 7
Last Quarter
Nov 13
New
Nov 20
First Quarter
Nov 28
Full
Dec 6
Last Quarter

Hourly Weather History & Observations

Time (CST) Temp. Windchill Dew Point Humidity Pressure Visibility Wind Dir Wind Speed Gust Speed Precip Events Conditions
12:15 AM 44.6 °F - 41.0 °F 87% 30.14 in 10.0 mi Calm Calm - N/A   Clear
12:35 AM 46.4 °F - 41.0 °F 81% 30.13 in 10.0 mi Calm Calm - N/A   Clear
12:55 AM 46.4 °F - 41.0 °F 81% 30.14 in 10.0 mi Calm Calm - N/A   Clear
1:15 AM 44.6 °F - 41.0 °F 87% 30.14 in 10.0 mi Calm Calm - N/A   Clear
1:35 AM 42.8 °F 41.1 °F 39.2 °F 87% 30.14 in 10.0 mi SW 3.5 mph - N/A   Clear
1:55 AM 41.0 °F - 37.4 °F 87% 30.15 in 10.0 mi Calm Calm - N/A   Clear
2:15 AM 42.8 °F 41.1 °F 37.4 °F 81% 30.15 in 10.0 mi NNE 3.5 mph - N/A   Clear
2:55 AM 41.0 °F 39.0 °F 37.4 °F 87% 30.14 in 10.0 mi West 3.5 mph - N/A   Clear
3:15 AM 41.0 °F - 37.4 °F 87% 30.14 in 10.0 mi Calm Calm - N/A   Clear
3:35 AM 41.0 °F - 37.4 °F 87% 30.13 in 10.0 mi Calm Calm - N/A   Clear
3:55 AM 39.2 °F - 37.4 °F 93% 30.13 in 10.0 mi Calm Calm - N/A   Clear
4:15 AM 39.2 °F 35.9 °F 37.4 °F 93% 30.14 in 10.0 mi WSW 4.6 mph - N/A   Clear
4:35 AM 39.2 °F 37.0 °F 37.4 °F 93% 30.15 in 10.0 mi WNW 3.5 mph - N/A   Clear
1:55 PM 73.4 °F - 35.6 °F 25% 30.10 in 10.0 mi ENE 3.5 mph - N/A   Clear
2:55 PM 73.4 °F - 33.8 °F 23% 30.08 in 10.0 mi Calm Calm - N/A   Clear
10:35 PM 50.0 °F - 33.8 °F 54% 30.08 in 10.0 mi Calm Calm - N/A   Clear
10:55 PM 48.2 °F - 35.6 °F 62% 30.08 in 10.0 mi Calm Calm - N/A   Clear
11:15 PM 50.0 °F - 35.6 °F 58% 30.08 in 10.0 mi East 5.8 mph - N/A   Clear
11:35 PM 50.0 °F - 35.6 °F 58% 30.08 in 10.0 mi ESE 5.8 mph - N/A   Clear
11:55 PM 46.4 °F - 35.6 °F 66% 30.07 in 10.0 mi Calm Calm - N/A   Clear